TimeMST,TemperatureF,Dew PointF,Humidity,Sea Level PressureIn,VisibilityMPH,Wind Direction,Wind SpeedMPH,Gust SpeedMPH,PrecipitationIn,Events,Conditions,WindDirDegrees,DateUTC
12:03 AM,8.6,3.2,79,29.85,4.0,ESE,12.7,-,0.00,Snow,Light Snow,110,2012-12-27 07:03:00
12:36 AM,8.6,3.2,79,29.85,2.5,ESE,10.4,-,0.00,Snow,Light Snow,110,2012-12-27 07:36:00
12:51 AM,9.0,3.0,77,30.01,2.5,ESE,9.2,-,0.00,Snow,Light Snow,110,2012-12-27 07:51:00
12:59 AM,8.6,3.2,79,29.85,3.0,ESE,10.4,-,0.00,Snow,Light Snow,110,2012-12-27 07:59:00
1:06 AM,8.6,3.2,79,29.85,4.0,ESE,9.2,-,0.00,Snow,Light Snow,110,2012-12-27 08:06:00
1:29 AM,8.6,3.2,79,29.85,2.5,ESE,10.4,-,0.01,Snow,Light Snow,110,2012-12-27 08:29:00
1:45 AM,8.6,3.2,79,29.85,3.0,ESE,6.9,-,0.01,Snow,Light Snow,110,2012-12-27 08:45:00
1:51 AM,9.0,3.0,77,30.01,3.0,East,6.9,-,0.01,Snow,Light Snow,100,2012-12-27 08:51:00
2:51 AM,8.1,1.9,76,30.02,6.0,East,5.8,-,0.00,Snow,Light Snow,100,2012-12-27 09:51:00
3:51 AM,6.1,-0.0,76,30.03,5.0,East,3.5,-,0.00,Snow,Light Snow,90,2012-12-27 10:51:00
4:51 AM,7.0,1.0,77,30.04,4.0,East,8.1,-,0.00,Snow,Light Snow,80,2012-12-27 11:51:00
4:59 AM,6.8,1.4,79,29.86,3.0,East,8.1,-,0.00,Snow,Light Snow,80,2012-12-27 11:59:00
5:13 AM,6.8,1.4,79,29.86,2.5,East,9.2,-,0.00,Snow,Light Snow,80,2012-12-27 12:13:00
5:24 AM,6.8,-0.4,72,29.86,4.0,East,6.9,-,0.00,Snow,Light Snow,80,2012-12-27 12:24:00
5:40 AM,6.8,-0.4,72,29.87,9.0,East,4.6,-,0.00,Snow,Light Snow,90,2012-12-27 12:40:00
5:51 AM,6.1,-0.0,76,30.04,10.0,East,4.6,-,0.00,,Overcast,90,2012-12-27 12:51:00
6:51 AM,6.1,-0.0,76,30.04,10.0,East,5.8,-,0.00,Snow,Light Snow,100,2012-12-27 13:51:00
7:51 AM,7.0,-0.0,73,30.06,2.5,East,4.6,-,0.01,Snow,Light Snow,90,2012-12-27 14:51:00
7:57 AM,6.8,-0.4,72,29.89,2.0,East,3.5,-,0.00,Snow,Light Snow,90,2012-12-27 14:57:00
8:10 AM,6.8,1.4,79,29.90,1.8,ENE,3.5,-,0.00,Snow,Light Snow,70,2012-12-27 15:10:00
8:44 AM,6.8,1.4,79,29.91,2.5,Calm,Calm,-,0.00,Snow,Light Snow,0,2012-12-27 15:44:00
8:51 AM,7.0,1.0,77,30.08,2.5,Calm,Calm,-,0.00,Snow,Light Snow,0,2012-12-27 15:51:00
8:57 AM,6.8,1.4,79,29.91,3.0,Calm,Calm,-,0.00,Snow,Light Snow,0,2012-12-27 15:57:00
9:23 AM,6.8,-0.4,72,29.92,6.0,ENE,3.5,-,0.00,Snow,Light Snow,70,2012-12-27 16:23:00
9:51 AM,9.0,1.0,70,30.09,9.0,North,4.6,-,0.00,,Overcast,10,2012-12-27 16:51:00
10:51 AM,10.0,1.9,70,30.09,10.0,Calm,Calm,-,N/A,,Overcast,0,2012-12-27 17:51:00
11:51 AM,10.9,3.0,70,30.06,10.0,South,3.5,-,N/A,,Overcast,190,2012-12-27 18:51:00
12:51 PM,10.9,3.0,70,30.06,8.0,NW,3.5,-,0.00,Snow,Light Snow,310,2012-12-27 19:51:00
1:51 PM,10.9,3.0,70,30.06,9.0,WNW,4.6,-,0.00,Snow,Light Snow,290,2012-12-27 20:51:00
2:51 PM,10.9,1.9,67,30.07,10.0,WNW,4.6,-,0.00,,Overcast,290,2012-12-27 21:51:00
3:51 PM,7.0,-0.0,73,30.09,10.0,Calm,Calm,-,N/A,,Overcast,0,2012-12-27 22:51:00
4:51 PM,1.9,-2.0,83,30.12,10.0,Calm,Calm,-,N/A,,Partly Cloudy,0,2012-12-27 23:51:00
6:51 PM,-2.9,-7.1,82,30.13,10.0,Calm,Calm,-,N/A,,Clear,0,2012-12-28 01:51:00
7:51 PM,-5.1,-9.9,80,30.14,10.0,Calm,Calm,-,N/A,,Clear,0,2012-12-28 02:51:00
8:51 PM,-7.1,-13.0,75,30.15,10.0,Calm,Calm,-,N/A,,Clear,0,2012-12-28 03:51:00
9:51 PM,-7.1,-16.1,65,30.14,10.0,Calm,Calm,-,N/A,,Clear,0,2012-12-28 04:51:00
10:51 PM,-9.0,-17.0,68,30.14,10.0,Calm,Calm,-,N/A,,Clear,0,2012-12-28 05:51:00
11:51 PM,-9.0,-18.0,65,30.14,10.0,Calm,Calm,-,N/A,,Clear,0,2012-12-28 06:51:00